SAS509 EGJB-EKCH

Flight info

Callsign SAS509
Flight time 1h 46m
Altitude 38000
Route ORIST DCT LFAQ/N0452F370 DCT EBWE DCT EHGG DCT EDHI DCT EKRK
Aircraft A319/M-SDE3FGHIRWY/LB1

Departure

Time 2026-05-08 15:23
Airport Guernsey Airport (EGJB)

Arrival

Time 2026-05-08 17:09
Airport Copenhagen Kastrup Airport (EKCH)
Time Latitude Longitude Altitude Speed Heading
2026-05-08 15:09 49.43251 -2.59621 341 ft 0 kts 178°
2026-05-08 15:15 49.43267 -2.59622 335 ft 4 kts 178°
2026-05-08 15:15 49.43294 -2.59623 339 ft 4 kts 178°
2026-05-08 15:15 49.43321 -2.59625 338 ft 4 kts 177°
2026-05-08 15:15 49.43347 -2.59622 336 ft 4 kts 209°
2026-05-08 15:16 49.43363 -2.59595 336 ft 2 kts 265°
2026-05-08 15:16 49.43363 -2.59585 351 ft 0 kts 266°
2026-05-08 15:18 49.43363 -2.59600 335 ft 4 kts 266°
2026-05-08 15:18 49.43360 -2.59671 338 ft 9 kts 266°
2026-05-08 15:19 49.43348 -2.59785 336 ft 13 kts 260°
2026-05-08 15:19 49.43342 -2.59937 335 ft 16 kts 268°
2026-05-08 15:19 49.43338 -2.60116 331 ft 18 kts 268°
2026-05-08 15:19 49.43333 -2.60263 330 ft 15 kts 267°
2026-05-08 15:20 49.43329 -2.60378 328 ft 17 kts 267°
2026-05-08 15:20 49.43325 -2.60575 323 ft 20 kts 268°
2026-05-08 15:20 49.43339 -2.60721 320 ft 22 kts 281°
2026-05-08 15:20 49.43363 -2.61051 317 ft 16 kts 267°
2026-05-08 15:21 49.43359 -2.61213 314 ft 14 kts 270°
2026-05-08 15:21 49.43410 -2.61338 312 ft 9 kts 319°
2026-05-08 15:21 49.43463 -2.61321 313 ft 9 kts 70°
2026-05-08 15:21 49.43466 -2.61280 314 ft 0 kts 86°
2026-05-08 15:22 49.43470 -2.61170 317 ft 36 kts 88°
2026-05-08 15:22 49.43489 -2.60477 326 ft 92 kts 88°
2026-05-08 15:22 49.43526 -2.59262 358 ft 134 kts 85°
2026-05-08 15:23 49.43585 -2.57871 731 ft 129 kts 84°
2026-05-08 15:23 49.43645 -2.56490 1119 ft 130 kts 87°
2026-05-08 15:23 49.43681 -2.55094 1496 ft 134 kts 89°
2026-05-08 15:23 49.43729 -2.53679 2014 ft 134 kts 88°
2026-05-08 15:24 49.43788 -2.52151 2249 ft 151 kts 88°
2026-05-08 15:24 49.43917 -2.50459 2447 ft 172 kts 73°
2026-05-08 15:24 49.44641 -2.48890 2811 ft 193 kts 40°
2026-05-08 15:24 49.45960 -2.48099 3138 ft 217 kts 15°
2026-05-08 15:25 49.47476 -2.47558 3738 ft 227 kts 14°
2026-05-08 15:25 49.49057 -2.46996 4358 ft 244 kts 14°
2026-05-08 15:25 49.50788 -2.46369 4856 ft 267 kts 14°
2026-05-08 15:25 49.52632 -2.45689 5641 ft 276 kts 14°
2026-05-08 15:26 49.54518 -2.44984 6573 ft 280 kts 14°
2026-05-08 15:26 49.56426 -2.44264 7465 ft 285 kts 14°
2026-05-08 15:26 49.58362 -2.43525 8346 ft 289 kts 14°
2026-05-08 15:26 49.60326 -2.42773 9221 ft 293 kts 14°
2026-05-08 15:27 49.62321 -2.42008 10076 ft 297 kts 14°
2026-05-08 15:27 49.64341 -2.41231 10860 ft 301 kts 14°
2026-05-08 15:27 49.66391 -2.40440 11646 ft 305 kts 14°
2026-05-08 15:27 49.68453 -2.39549 12409 ft 310 kts 21°
2026-05-08 15:28 49.70372 -2.38006 13155 ft 315 kts 34°
2026-05-08 15:28 49.72077 -2.35714 13378 ft 337 kts 50°
2026-05-08 15:28 49.73637 -2.32857 13526 ft 359 kts 51°
2026-05-08 15:28 49.75285 -2.29823 13849 ft 374 kts 51°
2026-05-08 15:29 49.76977 -2.26720 14390 ft 380 kts 50°
2026-05-08 15:29 49.78692 -2.23588 14986 ft 383 kts 50°
2026-05-08 15:29 49.80425 -2.20432 15594 ft 387 kts 50°
2026-05-08 15:29 49.82180 -2.17242 16201 ft 391 kts 50°
2026-05-08 15:30 49.83949 -2.14023 16808 ft 394 kts 49°
2026-05-08 15:30 49.85736 -2.10766 17424 ft 398 kts 49°
2026-05-08 15:30 49.87533 -2.07479 18042 ft 402 kts 49°
2026-05-08 15:30 49.89343 -2.04152 18608 ft 405 kts 49°
2026-05-08 15:31 49.91167 -2.00794 19140 ft 409 kts 49°
2026-05-08 15:31 49.93008 -1.97403 19672 ft 412 kts 49°
2026-05-08 15:31 49.94863 -1.93986 20216 ft 415 kts 49°
2026-05-08 15:31 49.96716 -1.90520 20723 ft 419 kts 52°
2026-05-08 15:32 49.98277 -1.86685 21221 ft 422 kts 63°
2026-05-08 15:32 49.99383 -1.82451 21693 ft 425 kts 73°
2026-05-08 15:32 49.99998 -1.77950 22161 ft 428 kts 84°
2026-05-08 15:32 50.00142 -1.73310 22612 ft 431 kts 89°
2026-05-08 15:33 50.00194 -1.68643 23052 ft 434 kts 89°
2026-05-08 15:33 50.00246 -1.63930 23486 ft 437 kts 89°
2026-05-08 15:33 50.00296 -1.59195 23858 ft 440 kts 89°
2026-05-08 15:33 50.00346 -1.54413 24203 ft 444 kts 89°
2026-05-08 15:34 50.00398 -1.49608 24553 ft 447 kts 89°
2026-05-08 15:34 50.00449 -1.44760 24906 ft 449 kts 89°
2026-05-08 15:34 50.00497 -1.39886 25257 ft 452 kts 89°
2026-05-08 15:34 50.00541 -1.34990 25601 ft 455 kts 89°
2026-05-08 15:35 50.00582 -1.30048 25948 ft 458 kts 89°
2026-05-08 15:35 50.00621 -1.25081 26292 ft 461 kts 89°
2026-05-08 15:35 50.00658 -1.20076 26626 ft 464 kts 89°
2026-05-08 15:35 50.00693 -1.15045 26957 ft 467 kts 89°
2026-05-08 15:36 50.00725 -1.09980 27280 ft 470 kts 89°
2026-05-08 15:36 50.00759 -1.04887 27600 ft 472 kts 89°
2026-05-08 15:36 50.00792 -0.99763 27908 ft 475 kts 89°
2026-05-08 15:36 50.00823 -0.94610 28211 ft 478 kts 89°
2026-05-08 15:37 50.00846 -0.89436 28508 ft 481 kts 89°
2026-05-08 15:37 50.00866 -0.84215 28811 ft 483 kts 89°
2026-05-08 15:37 50.00883 -0.78972 29099 ft 486 kts 89°
2026-05-08 15:37 50.00901 -0.73712 29387 ft 488 kts 89°
2026-05-08 15:38 50.00920 -0.68414 29669 ft 491 kts 89°
2026-05-08 15:38 50.00936 -0.63110 30071 ft 491 kts 89°
2026-05-08 15:38 50.00950 -0.57812 30441 ft 490 kts 89°
2026-05-08 15:38 50.00961 -0.52524 30810 ft 489 kts 89°
2026-05-08 15:39 50.00968 -0.47232 31185 ft 488 kts 89°
2026-05-08 15:39 50.00971 -0.41957 31568 ft 487 kts 89°
2026-05-08 15:39 50.00971 -0.36689 31952 ft 487 kts 89°
2026-05-08 15:39 50.00970 -0.31507 32330 ft 486 kts 89°
2026-05-08 15:40 50.00966 -0.26256 32714 ft 485 kts 89°
2026-05-08 15:40 50.00960 -0.21015 33102 ft 484 kts 88°
2026-05-08 15:40 50.00954 -0.15780 33486 ft 484 kts 88°
2026-05-08 15:40 50.00950 -0.10563 33873 ft 483 kts 88°
2026-05-08 15:41 50.00944 -0.05344 34236 ft 483 kts 88°
2026-05-08 15:41 50.00931 -0.00126 34555 ft 482 kts 88°
2026-05-08 15:41 50.00913 0.05089 34877 ft 482 kts 89°
2026-05-08 15:41 50.00887 0.10301 35197 ft 482 kts 89°
2026-05-08 15:42 50.00859 0.15511 35511 ft 482 kts 89°
2026-05-08 15:42 50.00830 0.20726 35816 ft 482 kts 89°
2026-05-08 15:42 50.00803 0.25927 36116 ft 482 kts 89°
2026-05-08 15:42 50.00777 0.31136 36406 ft 482 kts 89°
2026-05-08 15:43 50.00752 0.36344 36695 ft 481 kts 89°
2026-05-08 15:43 50.00722 0.41542 36965 ft 482 kts 89°
2026-05-08 15:43 50.00653 0.51936 37063 ft 479 kts 89°
2026-05-08 15:44 50.00575 0.62280 37062 ft 478 kts 89°
2026-05-08 15:44 50.00481 0.72608 37059 ft 478 kts 89°
2026-05-08 15:45 50.00381 0.82925 37072 ft 477 kts 89°
2026-05-08 15:45 50.00274 0.93170 37064 ft 477 kts 89°
2026-05-08 15:46 50.00157 1.03481 37063 ft 477 kts 89°
2026-05-08 15:46 50.00035 1.13785 37073 ft 477 kts 89°
2026-05-08 15:47 49.99901 1.24080 37071 ft 476 kts 90°
2026-05-08 15:47 49.99758 1.34376 37074 ft 476 kts 90°
2026-05-08 15:48 49.99520 1.49780 37074 ft 475 kts 90°
2026-05-08 15:49 49.99351 1.60036 37073 ft 475 kts 90°
2026-05-08 15:49 49.99169 1.70292 37068 ft 474 kts 90°
2026-05-08 15:50 49.98980 1.80535 37063 ft 474 kts 90°
2026-05-08 15:50 49.98790 1.90759 37066 ft 474 kts 90°
2026-05-08 15:51 49.98586 2.00995 37061 ft 474 kts 90°
2026-05-08 15:51 49.98371 2.11257 37057 ft 474 kts 90°
2026-05-08 15:52 49.98148 2.21438 37058 ft 475 kts 90°
2026-05-08 15:52 49.97919 2.31750 37073 ft 475 kts 90°
2026-05-08 15:53 49.97678 2.42005 37055 ft 475 kts 90°
2026-05-08 15:53 49.97427 2.52278 37056 ft 475 kts 90°
2026-05-08 15:54 49.97641 2.62487 37057 ft 472 kts 76°
2026-05-08 15:54 49.99849 2.71947 37057 ft 464 kts 56°
2026-05-08 15:55 50.03831 2.79674 37055 ft 456 kts 40°
2026-05-08 15:55 50.10594 2.90014 37058 ft 457 kts 41°
2026-05-08 15:56 50.15119 2.96971 37065 ft 457 kts 41°
2026-05-08 15:56 50.19645 3.03934 37074 ft 457 kts 41°
2026-05-08 15:57 50.24165 3.10903 37074 ft 457 kts 41°
2026-05-08 15:57 50.28679 3.17888 37075 ft 457 kts 41°
2026-05-08 15:58 50.33181 3.24893 37075 ft 457 kts 42°
2026-05-08 15:58 50.37691 3.31919 37074 ft 457 kts 42°
2026-05-08 15:59 50.42194 3.38949 37074 ft 457 kts 42°
2026-05-08 15:59 50.46696 3.45994 37080 ft 457 kts 42°
2026-05-08 16:00 50.51197 3.53068 37081 ft 458 kts 42°
2026-05-08 16:00 50.54933 3.58958 37090 ft 458 kts 42°
2026-05-08 16:01 50.59423 3.66061 37091 ft 458 kts 43°
2026-05-08 16:01 50.63919 3.73178 37093 ft 458 kts 43°
2026-05-08 16:02 50.68407 3.80299 37092 ft 458 kts 43°
2026-05-08 16:02 50.72887 3.87450 37092 ft 458 kts 43°
2026-05-08 16:03 50.77367 3.94620 37093 ft 458 kts 43°
2026-05-08 16:03 50.81847 4.01788 37092 ft 458 kts 43°
2026-05-08 16:04 50.86336 4.08980 37079 ft 461 kts 43°
2026-05-08 16:04 50.90832 4.16208 37088 ft 460 kts 43°
2026-05-08 16:05 50.95317 4.23467 37101 ft 460 kts 44°
2026-05-08 16:05 50.99787 4.30733 37098 ft 460 kts 44°
2026-05-08 16:06 51.04261 4.38014 37093 ft 460 kts 44°
2026-05-08 16:06 51.08731 4.45310 37116 ft 460 kts 44°
2026-05-08 16:07 51.13177 4.52564 37114 ft 461 kts 44°
2026-05-08 16:07 51.17645 4.59884 37112 ft 461 kts 44°
2026-05-08 16:08 51.22109 4.67222 37108 ft 461 kts 44°
2026-05-08 16:08 51.26596 4.74621 37104 ft 461 kts 44°
2026-05-08 16:09 51.31054 4.82004 37110 ft 462 kts 44°
2026-05-08 16:09 51.35484 4.89375 37111 ft 462 kts 44°
2026-05-08 16:10 51.40206 4.96406 37113 ft 459 kts 33°
2026-05-08 16:10 51.45652 5.01535 37113 ft 457 kts 27°
2026-05-08 16:11 51.51217 5.06531 37120 ft 458 kts 27°
2026-05-08 16:11 51.56766 5.11545 37116 ft 458 kts 27°
2026-05-08 16:12 51.62321 5.16576 37118 ft 458 kts 27°
2026-05-08 16:12 51.67874 5.21617 37117 ft 458 kts 27°
2026-05-08 16:13 51.73423 5.26673 37116 ft 458 kts 27°
2026-05-08 16:13 51.78972 5.31751 37118 ft 458 kts 27°
2026-05-08 16:14 51.84524 5.36844 37119 ft 458 kts 27°
2026-05-08 16:14 51.90069 5.41940 37111 ft 458 kts 27°
2026-05-08 16:15 51.95611 5.47057 37119 ft 458 kts 27°
2026-05-08 16:15 52.01148 5.52172 37111 ft 458 kts 27°
2026-05-08 16:16 52.06688 5.57296 37110 ft 458 kts 27°
2026-05-08 16:16 52.12227 5.62439 37106 ft 458 kts 28°
2026-05-08 16:17 52.16830 5.66730 37110 ft 459 kts 28°
2026-05-08 16:17 52.23302 5.72789 37111 ft 459 kts 28°
2026-05-08 16:18 52.28840 5.77983 37117 ft 459 kts 28°
2026-05-08 16:18 52.34376 5.83198 37114 ft 459 kts 28°
2026-05-08 16:19 52.39907 5.88422 37116 ft 459 kts 28°
2026-05-08 16:19 52.45445 5.93658 37117 ft 459 kts 28°
2026-05-08 16:20 52.50986 5.98910 37110 ft 460 kts 28°
2026-05-08 16:20 52.56491 6.04144 37124 ft 460 kts 28°
2026-05-08 16:21 52.62026 6.09427 37126 ft 460 kts 28°
2026-05-08 16:21 52.67593 6.14758 37122 ft 460 kts 28°
2026-05-08 16:22 52.73132 6.20074 37135 ft 460 kts 28°
2026-05-08 16:22 52.78625 6.25358 37138 ft 460 kts 28°
2026-05-08 16:23 52.84184 6.30742 37138 ft 460 kts 28°
2026-05-08 16:23 52.89677 6.36067 37135 ft 460 kts 28°
2026-05-08 16:24 52.95203 6.41426 37143 ft 460 kts 28°
2026-05-08 16:24 53.00728 6.46809 37140 ft 460 kts 29°
2026-05-08 16:25 53.06246 6.52200 37145 ft 460 kts 29°
2026-05-08 16:25 53.11708 6.57749 37144 ft 461 kts 35°
2026-05-08 16:26 53.16376 6.65084 37148 ft 462 kts 45°
2026-05-08 16:26 53.20813 6.72847 37142 ft 462 kts 45°
2026-05-08 16:27 53.25243 6.80603 37161 ft 460 kts 45°
2026-05-08 16:27 53.29646 6.88321 37176 ft 457 kts 45°
2026-05-08 16:28 53.34013 6.96030 37171 ft 455 kts 45°
2026-05-08 16:28 53.38352 7.03731 37168 ft 454 kts 45°
2026-05-08 16:29 53.42679 7.11419 37160 ft 453 kts 46°
2026-05-08 16:29 53.47006 7.19111 37188 ft 452 kts 46°
2026-05-08 16:30 53.51319 7.26803 37184 ft 452 kts 46°
2026-05-08 16:30 53.55614 7.34511 37180 ft 452 kts 46°
2026-05-08 16:31 53.59907 7.42240 37183 ft 451 kts 46°
2026-05-08 16:31 53.64192 7.49966 37179 ft 451 kts 46°
2026-05-08 16:32 53.68465 7.57700 37178 ft 451 kts 46°
2026-05-08 16:32 53.72737 7.65449 37179 ft 450 kts 46°
2026-05-08 16:33 53.76997 7.73212 37180 ft 450 kts 46°
2026-05-08 16:33 53.81248 7.80978 37183 ft 450 kts 46°
2026-05-08 16:34 53.85501 7.88752 37185 ft 450 kts 46°
2026-05-08 16:34 53.89731 7.96547 37188 ft 449 kts 46°
2026-05-08 16:35 53.93933 8.04316 37192 ft 449 kts 46°
2026-05-08 16:35 53.98185 8.12185 37190 ft 449 kts 46°
2026-05-08 16:36 54.02378 8.19950 37193 ft 449 kts 46°
2026-05-08 16:36 54.06588 8.27779 37195 ft 448 kts 47°
2026-05-08 16:37 54.10786 8.35628 37191 ft 448 kts 47°
2026-05-08 16:37 54.14980 8.43484 37190 ft 448 kts 47°
2026-05-08 16:38 54.19161 8.51347 37188 ft 447 kts 47°
2026-05-08 16:38 54.23336 8.59232 37191 ft 447 kts 47°
2026-05-08 16:39 54.27500 8.67123 37200 ft 447 kts 47°
2026-05-08 16:39 54.31664 8.75033 37194 ft 447 kts 47°
2026-05-08 16:40 54.35819 8.82965 37200 ft 447 kts 47°
2026-05-08 16:40 54.39967 8.90902 37203 ft 447 kts 47°
2026-05-08 16:41 54.44114 8.98846 37077 ft 447 kts 47°
2026-05-08 16:41 54.46187 9.02832 36813 ft 446 kts 47°
2026-05-08 16:42 54.50310 9.10778 36311 ft 443 kts 47°
2026-05-08 16:42 54.51666 9.13400 36149 ft 441 kts 47°
2026-05-08 16:42 54.54348 9.18595 35816 ft 436 kts 47°
2026-05-08 16:42 54.56356 9.22493 35608 ft 433 kts 47°
2026-05-08 16:43 54.58346 9.26361 35415 ft 430 kts 47°
2026-05-08 16:43 54.60325 9.30215 35220 ft 427 kts 47°
2026-05-08 16:43 54.62285 9.34033 35026 ft 424 kts 47°
2026-05-08 16:43 54.63605 9.36604 34894 ft 422 kts 47°
2026-05-08 16:44 54.65545 9.40387 34703 ft 419 kts 47°
2026-05-08 16:44 54.67469 9.44144 34515 ft 416 kts 47°
2026-05-08 16:44 54.69378 9.47883 34327 ft 414 kts 47°
2026-05-08 16:44 54.71276 9.51608 34124 ft 411 kts 47°
2026-05-08 16:45 54.73139 9.55266 33903 ft 409 kts 47°
2026-05-08 16:45 54.75017 9.58953 33697 ft 408 kts 47°
2026-05-08 16:45 54.76887 9.62631 33475 ft 406 kts 47°
2026-05-08 16:45 54.78750 9.66307 33262 ft 405 kts 47°
2026-05-08 16:46 54.80605 9.69979 33047 ft 404 kts 47°
2026-05-08 16:46 54.82448 9.73638 32839 ft 403 kts 48°
2026-05-08 16:46 54.84287 9.77295 32625 ft 403 kts 48°
2026-05-08 16:46 54.86162 9.81019 32421 ft 417 kts 47°
2026-05-08 16:47 54.88105 9.84877 32210 ft 432 kts 48°
2026-05-08 16:47 54.90097 9.88850 32000 ft 438 kts 49°
2026-05-08 16:47 54.91807 9.93231 31794 ft 443 kts 60°
2026-05-08 16:47 54.93321 9.97956 31534 ft 453 kts 60°
2026-05-08 16:48 54.94858 10.02785 31228 ft 457 kts 60°
2026-05-08 16:48 54.96390 10.07625 30791 ft 456 kts 60°
2026-05-08 16:48 54.97915 10.12460 30349 ft 456 kts 60°
2026-05-08 16:48 54.99452 10.17342 29829 ft 462 kts 60°
2026-05-08 16:49 55.00993 10.22256 29323 ft 462 kts 60°
2026-05-08 16:49 55.02531 10.27169 28818 ft 462 kts 60°
2026-05-08 16:49 55.04067 10.32086 28320 ft 462 kts 60°
2026-05-08 16:49 55.05600 10.36995 27835 ft 460 kts 60°
2026-05-08 16:50 55.07147 10.41954 27350 ft 457 kts 60°
2026-05-08 16:50 55.08658 10.46809 26883 ft 455 kts 61°
2026-05-08 16:50 55.10170 10.51686 26414 ft 459 kts 61°
2026-05-08 16:50 55.11691 10.56603 25964 ft 460 kts 61°
2026-05-08 16:51 55.13234 10.61605 25518 ft 476 kts 61°
2026-05-08 16:51 55.14818 10.66736 25068 ft 482 kts 61°
2026-05-08 16:51 55.16389 10.71826 24649 ft 482 kts 61°
2026-05-08 16:51 55.17986 10.76998 24218 ft 484 kts 61°
2026-05-08 16:52 55.19582 10.82185 23794 ft 483 kts 61°
2026-05-08 16:52 55.21166 10.87357 23296 ft 481 kts 61°
2026-05-08 16:52 55.22737 10.92512 22802 ft 478 kts 61°
2026-05-08 16:52 55.24293 10.97635 22312 ft 475 kts 61°
2026-05-08 16:53 55.27364 11.07788 21368 ft 468 kts 61°
2026-05-08 16:53 55.28882 11.12815 20902 ft 465 kts 61°
2026-05-08 16:53 55.30393 11.17828 20449 ft 462 kts 62°
2026-05-08 16:54 55.31892 11.22798 19999 ft 460 kts 62°
2026-05-08 16:54 55.33385 11.27746 19563 ft 457 kts 62°
2026-05-08 16:54 55.34871 11.32679 19129 ft 454 kts 62°
2026-05-08 16:54 55.36341 11.37571 18691 ft 451 kts 62°
2026-05-08 16:55 55.37797 11.42430 18227 ft 449 kts 62°
2026-05-08 16:55 55.39246 11.47275 17741 ft 445 kts 62°
2026-05-08 16:55 55.40678 11.52089 17263 ft 442 kts 62°
2026-05-08 16:55 55.42091 11.56867 16784 ft 439 kts 62°
2026-05-08 16:56 55.43538 11.61582 16317 ft 435 kts 57°
2026-05-08 16:56 55.45489 11.65587 15869 ft 430 kts 41°
2026-05-08 16:56 55.47721 11.69087 15602 ft 429 kts 40°
2026-05-08 16:56 55.49947 11.72565 15216 ft 426 kts 40°
2026-05-08 16:57 55.52158 11.76021 14720 ft 422 kts 41°
2026-05-08 16:57 55.54343 11.79442 14233 ft 419 kts 41°
2026-05-08 16:57 55.56507 11.82843 13718 ft 415 kts 41°
2026-05-08 16:57 55.58656 11.86225 13230 ft 410 kts 41°
2026-05-08 16:58 55.60741 11.89512 13003 ft 391 kts 41°
2026-05-08 16:58 55.62710 11.92620 12594 ft 377 kts 41°
2026-05-08 16:58 55.64634 11.95660 12175 ft 364 kts 41°
2026-05-08 16:58 55.66497 11.98610 11763 ft 353 kts 41°
2026-05-08 16:59 55.68300 12.01472 11361 ft 343 kts 42°
2026-05-08 16:59 55.70050 12.04253 10960 ft 334 kts 42°
2026-05-08 16:59 55.71706 12.07063 10568 ft 326 kts 50°
2026-05-08 16:59 55.72839 12.10473 10166 ft 319 kts 69°
2026-05-08 17:00 55.73282 12.14299 9683 ft 316 kts 87°
2026-05-08 17:00 55.73116 12.18166 9201 ft 313 kts 95°
2026-05-08 17:00 55.72871 12.21985 8727 ft 310 kts 95°
2026-05-08 17:00 55.72628 12.25770 8256 ft 308 kts 95°
2026-05-08 17:01 55.72391 12.29532 7789 ft 305 kts 95°
2026-05-08 17:01 55.72160 12.33261 7341 ft 303 kts 95°
2026-05-08 17:01 55.71929 12.36930 7076 ft 295 kts 95°
2026-05-08 17:01 55.71704 12.40502 6826 ft 288 kts 95°
2026-05-08 17:02 55.71522 12.43405 6616 ft 282 kts 95°
2026-05-08 17:02 55.71321 12.46584 6366 ft 277 kts 95°
2026-05-08 17:02 55.71262 12.49954 6104 ft 270 kts 82°
2026-05-08 17:02 55.71682 12.53117 5828 ft 266 kts 67°
2026-05-08 17:03 55.72484 12.56061 5513 ft 264 kts 60°
2026-05-08 17:03 55.73315 12.58955 5202 ft 263 kts 61°
2026-05-08 17:03 55.74140 12.61852 4893 ft 263 kts 61°
2026-05-08 17:03 55.75119 12.64556 4580 ft 259 kts 48°
2026-05-08 17:04 55.76417 12.66751 4258 ft 256 kts 39°
2026-05-08 17:04 55.77700 12.68934 3946 ft 256 kts 50°
2026-05-08 17:04 55.78467 12.71784 3564 ft 261 kts 76°
2026-05-08 17:04 55.78436 12.75018 3155 ft 267 kts 103°
2026-05-08 17:05 55.77642 12.77959 3004 ft 260 kts 119°
2026-05-08 17:05 55.76760 12.80651 3008 ft 245 kts 119°
2026-05-08 17:05 55.75789 12.83056 3001 ft 238 kts 137°
2026-05-08 17:05 55.74294 12.84173 3012 ft 237 kts 179°
2026-05-08 17:06 55.72786 12.83375 2891 ft 224 kts 221°
2026-05-08 17:06 55.71806 12.81330 2651 ft 216 kts 236°
2026-05-08 17:06 55.70747 12.79464 2371 ft 213 kts 224°
2026-05-08 17:06 55.69653 12.77794 2088 ft 202 kts 224°
2026-05-08 17:07 55.68620 12.76202 1837 ft 192 kts 225°
2026-05-08 17:07 55.67649 12.74697 1553 ft 178 kts 224°
2026-05-08 17:07 55.66758 12.73313 1323 ft 163 kts 224°
2026-05-08 17:07 55.65934 12.72033 1066 ft 152 kts 225°
2026-05-08 17:08 55.65170 12.70830 750 ft 147 kts 224°
2026-05-08 17:08 55.64419 12.69654 512 ft 143 kts 221°
2026-05-08 17:08 55.63676 12.68503 326 ft 141 kts 221°
2026-05-08 17:08 55.62940 12.67368 193 ft 140 kts 221°
2026-05-08 17:09 55.62212 12.66242 36 ft 136 kts 221°
2026-05-08 17:09 55.61575 12.65256 22 ft 102 kts 221°
2026-05-08 17:09 55.61254 12.64598 25 ft 45 kts 250°
2026-05-08 17:09 55.61191 12.64257 25 ft 21 kts 259°
2026-05-08 17:10 55.61286 12.64126 24 ft 22 kts 18°
2026-05-08 17:10 55.61422 12.64277 24 ft 24 kts 34°
2026-05-08 17:10 55.61571 12.64445 24 ft 27 kts 33°
2026-05-08 17:10 55.61720 12.64618 25 ft 24 kts 33°
2026-05-08 17:11 55.61857 12.64775 24 ft 20 kts 33°
2026-05-08 17:11 55.61974 12.64910 24 ft 20 kts 32°
2026-05-08 17:11 55.62086 12.65037 26 ft 19 kts 33°
2026-05-08 17:11 55.62128 12.65086 25 ft 5 kts 34°
2026-05-08 17:12 55.62155 12.65118 25 ft 5 kts 34°
2026-05-08 17:12 55.62187 12.65156 24 ft 5 kts 32°
2026-05-08 17:12 55.62223 12.65188 24 ft 7 kts 22°
2026-05-08 17:12 55.62283 12.65198 24 ft 10 kts 359°
2026-05-08 17:13 55.62354 12.65204 24 ft 10 kts 359°
2026-05-08 17:13 55.62423 12.65203 24 ft 10 kts 358°
2026-05-08 17:13 55.62486 12.65187 24 ft 9 kts 356°
2026-05-08 17:13 55.62548 12.65184 24 ft 9 kts 360°
2026-05-08 17:14 55.62608 12.65187 24 ft 8 kts
2026-05-08 17:14 55.62665 12.65188 24 ft 8 kts 360°
2026-05-08 17:14 55.62719 12.65181 27 ft 7 kts 356°
2026-05-08 17:14 55.62739 12.65179 24 ft 0 kts 356°